Weather reports worldwide

Advertisment
Heraklion, Greece (16754): temperature & dewpoint: 17.03.2019 11:00:00 - 23.03.2019 11:00:00 (EET)Heraklion, Greece (16754): wind speed: 17.03.2019 11:00:00 - 23.03.2019 11:00:00 (EET)Heraklion, Greece (16754): wind direction: 17.03.2019 11:00:00 - 23.03.2019 11:00:00 (EET)Heraklion, Greece (16754): reduced air pressure: 17.03.2019 11:00:00 - 23.03.2019 11:00:00 (EET)Heraklion, Greece (16754): visibility: 17.03.2019 11:00:00 - 23.03.2019 11:00:00 (EET)
Date & Time tt [°C] td [°C] ff [km/h] ff [kn] dd ppp [hPa] vv [km]
23.03.2019 11:00:00 16,0 8,1 22 12 NNW 1017,4 10
23.03.2019 10:00:00 16,0 9,0 22 12 NW - 10
23.03.2019 09:00:00 14,0 10,0 18 10 WNW - 10
23.03.2019 08:00:00 14,0 8,9 15 8 WNW 1017,5 10
23.03.2019 07:00:00 14,0 9,0 16 9 WNW - 10
23.03.2019 06:00:00 14,0 9,0 18 10 NW - 10
23.03.2019 05:00:00 13,6 8,9 18 10 WNW 1017,6 10
23.03.2019 04:00:00 14,0 9,0 21 11 NW - 10
23.03.2019 03:00:00 14,0 9,0 18 10 WNW - 10
23.03.2019 02:00:00 13,8 8,7 18 10 WNW 1019,1 10
23.03.2019 01:00:00 14,0 9,0 18 10 WNW - 10
23.03.2019 00:00:00 14,0 9,0 16 9 NW - 10
22.03.2019 23:00:00 14,0 9,3 18 10 NW 1020,2 10
22.03.2019 22:00:00 14,0 9,0 18 10 NW - 10
22.03.2019 21:00:00 14,0 9,0 22 12 NNW - 10
22.03.2019 20:00:00 14,6 9,6 21 11 NW 1020,0 10
22.03.2019 19:00:00 15,0 9,0 22 12 NNW - 10
22.03.2019 18:00:00 16,0 9,0 24 13 NW - 10
22.03.2019 17:00:00 16,6 10,2 24 13 NW 1020,2 10
22.03.2019 16:00:00 17,0 10,0 22 12 NW - 10
22.03.2019 15:00:00 17,0 9,0 22 12 NW - 10
22.03.2019 14:00:00 17,0 10,7 24 13 NW 1021,3 10
22.03.2019 13:00:00 17,0 11,0 24 13 NW - 10
22.03.2019 12:00:00 17,0 11,0 28 15 NW - 10
22.03.2019 11:00:00 16,2 10,6 24 13 NW 1022,3 10
22.03.2019 10:00:00 16,0 11,0 24 13 NW - 10
22.03.2019 09:00:00 15,0 10,0 24 13 NW - 10
22.03.2019 08:00:00 14,8 9,8 21 11 NW 1021,9 10
22.03.2019 07:00:00 14,0 11,0 24 13 NW - 10
22.03.2019 06:00:00 15,0 11,0 24 13 NW - 10
22.03.2019 05:00:00 14,6 11,2 26 14 NW 1021,4 10
22.03.2019 04:00:00 15,0 11,0 22 12 NW - 10
22.03.2019 03:00:00 15,0 11,0 22 12 NW - 10
22.03.2019 02:00:00 14,8 11,1 26 14 NW 1021,8 10
22.03.2019 01:00:00 15,0 11,0 24 13 NW - 10
22.03.2019 00:00:00 15,0 11,0 26 14 NW - 10
21.03.2019 23:00:00 15,0 11,3 24 13 NW 1021,8 10
21.03.2019 22:00:00 15,0 11,0 28 15 NW - 10
21.03.2019 21:00:00 15,0 12,0 28 15 NW - 10
21.03.2019 20:00:00 15,2 11,1 29 16 NNW 1020,7 10
21.03.2019 19:00:00 15,0 11,0 28 15 NNW - 10
21.03.2019 18:00:00 16,0 12,0 26 14 NW - 10
21.03.2019 17:00:00 16,4 11,6 26 14 NNW 1018,5 10
21.03.2019 16:00:00 17,0 13,0 24 13 NNW - 10
21.03.2019 15:00:00 17,0 12,0 24 13 NNW - 10
21.03.2019 14:00:00 17,4 12,0 22 12 NW 1020,7 10
21.03.2019 13:00:00 17,0 12,0 21 11 NW - 10
21.03.2019 12:00:00 16,0 12,0 21 11 NW - 10
21.03.2019 11:00:00 16,6 12,3 22 12 NW 1020,7 10
21.03.2019 10:00:00 16,0 12,0 22 12 NNW - 10
21.03.2019 09:00:00 16,0 13,0 21 11 NNW - 10
21.03.2019 08:00:00 15,8 13,7 21 11 NNW 1019,6 10
21.03.2019 07:00:00 15,0 13,0 16 9 WNW - 9
21.03.2019 06:00:00 15,0 12,0 18 10 WNW - 10
21.03.2019 05:00:00 14,4 11,8 18 10 WNW 1018,5 10
21.03.2019 04:00:00 14,0 12,0 15 8 WNW - 10
21.03.2019 03:00:00 14,0 12,0 15 8 NW - 10
21.03.2019 02:00:00 15,0 12,5 11 6 NNW 1019,4 10
21.03.2019 01:00:00 15,0 13,0 11 6 NNW - 10
21.03.2019 00:00:00 15,0 13,0 11 6 NNW - 10
20.03.2019 23:00:00 15,4 13,3 13 7 NNW 1019,5 10
20.03.2019 22:00:00 15,0 12,0 5 3 - - 10
20.03.2019 21:00:00 15,0 13,0 8 4 N - 10
20.03.2019 20:00:00 15,2 13,1 9 5 N 1018,9 10
20.03.2019 19:00:00 15,0 13,0 11 6 NNE - 10
20.03.2019 18:00:00 16,0 13,0 13 7 NE - 10
20.03.2019 17:00:00 16,4 12,8 11 6 NE 1018,2 10
20.03.2019 16:00:00 17,0 13,0 11 6 NNE - 10
20.03.2019 15:00:00 18,0 13,0 13 7 NNE - 10
20.03.2019 14:00:00 17,8 13,2 9 5 N 1018,9 10
20.03.2019 13:00:00 18,0 13,0 11 6 NNW - 10
20.03.2019 12:00:00 16,0 13,0 9 5 NNW - 10
20.03.2019 11:00:00 16,2 13,0 5 3 NNW 1018,9 10
20.03.2019 10:00:00 16,0 13,0 5 3 N - 10
20.03.2019 09:00:00 15,0 13,0 0 0 N - 10
20.03.2019 08:00:00 12,8 11,7 5 3 S 1017,9 10
20.03.2019 07:00:00 11,0 9,0 11 6 S - 10
20.03.2019 06:00:00 11,0 9,0 11 6 S - 10
20.03.2019 05:00:00 11,6 9,6 8 4 S 1018,0 10
20.03.2019 04:00:00 12,0 10,0 8 4 S - 10
20.03.2019 03:00:00 12,0 10,0 8 4 S - 10
20.03.2019 02:00:00 12,0 9,6 8 4 S 1018,0 10
20.03.2019 01:00:00 12,0 11,0 9 5 S - 10
20.03.2019 00:00:00 12,0 11,0 9 5 S - 10
19.03.2019 23:00:00 12,0 9,6 9 5 SSE 1018,0 10
19.03.2019 22:00:00 12,0 11,0 9 5 S - 10
19.03.2019 21:00:00 13,0 11,0 9 5 S - 10
19.03.2019 20:00:00 13,0 11,5 5 3 S 1017,5 10
19.03.2019 19:00:00 14,0 12,0 0 0 N - 10
19.03.2019 18:00:00 16,0 12,0 11 6 ENE - 10
19.03.2019 17:00:00 16,6 11,9 13 7 ENE 1016,5 10
19.03.2019 16:00:00 17,0 12,0 13 7 NE - 10
19.03.2019 15:00:00 18,0 12,0 13 7 ENE - 10
19.03.2019 14:00:00 18,0 11,5 11 6 ENE 1017,4 10
19.03.2019 13:00:00 18,0 11,0 11 6 N - 10
19.03.2019 12:00:00 18,0 11,0 0 0 N - 10
19.03.2019 11:00:00 17,0 11,5 0 0 N 1017,5 10
19.03.2019 10:00:00 16,0 11,0 0 0 N - 10
19.03.2019 09:00:00 15,0 11,0 13 7 SSE - 10
19.03.2019 08:00:00 13,8 10,4 13 7 SSE 1017,3 10
19.03.2019 07:00:00 12,0 9,0 13 7 SSE - 10
19.03.2019 06:00:00 11,0 7,0 16 9 S - 10
19.03.2019 05:00:00 10,6 7,3 15 8 SSE 1016,7 10
19.03.2019 04:00:00 11,0 7,0 9 5 S - 10
19.03.2019 03:00:00 11,0 9,0 9 5 S - 10
19.03.2019 02:00:00 11,4 9,4 11 6 S 1017,9 10
19.03.2019 01:00:00 11,0 9,0 13 7 SSE - 10
19.03.2019 00:00:00 11,0 9,0 11 6 S - 10
18.03.2019 23:00:00 11,4 9,0 8 4 S 1017,9 10
18.03.2019 22:00:00 12,0 9,0 9 5 SSE - 10
18.03.2019 21:00:00 14,0 11,0 0 0 N - 10
18.03.2019 20:00:00 14,0 11,4 0 0 N 1017,5 10
18.03.2019 19:00:00 15,0 12,0 11 6 ENE - 10
18.03.2019 18:00:00 16,0 12,0 11 6 ENE - 10
18.03.2019 17:00:00 16,0 12,8 11 6 ENE 1018,6 10
18.03.2019 16:00:00 17,0 13,0 9 5 NNW - 10
18.03.2019 15:00:00 17,0 13,0 9 5 N - 10
18.03.2019 14:00:00 16,8 12,9 8 4 N 1018,6 10
18.03.2019 13:00:00 17,0 12,0 11 6 NNW - 10
18.03.2019 12:00:00 17,0 13,0 13 7 NNW - 10
18.03.2019 11:00:00 16,4 11,6 13 7 NNW 1019,3 10
18.03.2019 10:00:00 16,0 10,0 9 5 N - 10
18.03.2019 09:00:00 15,0 10,0 5 3 - - 10
18.03.2019 08:00:00 13,0 9,1 13 7 SSE 1018,6 10
18.03.2019 07:00:00 11,0 8,0 18 10 S - 10
18.03.2019 06:00:00 11,0 8,0 16 9 S - 10
18.03.2019 05:00:00 10,8 8,4 13 7 SSE 1017,8 10
18.03.2019 04:00:00 11,0 9,0 13 7 SSE - 10
18.03.2019 03:00:00 12,0 10,0 15 8 S - 10
18.03.2019 02:00:00 12,0 9,6 21 11 SSE 1018,3 10
18.03.2019 01:00:00 12,0 10,0 21 11 S - 10
18.03.2019 00:00:00 12,0 10,0 18 10 SSE - 10
17.03.2019 23:00:00 12,4 9,7 16 9 S 1019,3 10
17.03.2019 22:00:00 13,0 11,0 11 6 S - 10
17.03.2019 21:00:00 13,0 11,0 11 6 SSE - 10
17.03.2019 20:00:00 13,4 11,5 9 5 S 1019,1 10
17.03.2019 19:00:00 15,0 12,0 5 3 S - 10
17.03.2019 18:00:00 17,0 13,0 8 4 NW - 10
17.03.2019 17:00:00 17,4 13,2 11 6 NNW 1019,3 10
17.03.2019 16:00:00 18,0 13,0 11 6 NNW - 10
17.03.2019 15:00:00 19,0 13,0 9 5 N - 10
17.03.2019 14:00:00 18,0 12,7 11 6 NNW 1019,9 10
17.03.2019 13:00:00 18,0 12,0 11 6 NNW - 10
17.03.2019 12:00:00 18,0 12,0 8 4 N - 10
17.03.2019 11:00:00 17,4 10,3 11 6 NNW 1020,0 10

tt = temperature
td = dewpoint
ff = wind speed
dd = wind direction
ppp = reduced air pressure
vv = visibility

Next stations